Home   Weather   Stuttgart   Past weeks

Flag for Germany Past Weather in Stuttgart, Baden-Württemberg, Germany — Yesterday and Last 2 Weeks

Now
28 °F

Clear.


Feels Like: 28 °F
Forecast: 28 / 44 °F
Wind: 1 mph from East

Location: Stuttgart-Echterdingen

Current Time: Dec 10, 2016 at 11:40:23 pm

Latest Report: Dec 10, 2016 at 11:20 pm


Visibility: 10 mi

Pressure: 30.21 "Hg

Humidity: 93%

Dew Point: 27 °F

Location of StuttgartLocation

Past Weather in Stuttgart — Graph

°F

Stuttgart Temperature Yesterday

Maximum temperature yesterday: 45 °F (at 2:50 pm)
Minimum temperature yesterday: 25 °F (at 2:50 am)
Average temperature yesterday: 35 °F

High & Low Weather Summary for the Past Weeks

 TemperatureHumidityPressure
High50 °F (Dec 10, 2:20 pm)100% (Dec 2, 7:50 pm)30.54 "Hg (Dec 2, 7:50 pm)
Low19 °F (Nov 30, 5:20 am)31% (Dec 1, 1:50 pm)30.01 "Hg (Nov 26, 1:20 pm)
Average33 °F84%30.31 "Hg
* Reported Nov 25 10:20 pm — Dec 10 10:20 pm, Stuttgart, Weather by CustomWeather, © 2016

Note: Actual official high and low records may vary slightly from our data, if they occured in-between our weather recording intervals... More about our weather records

Advertising

Stuttgart Weather History for the Previous 24 Hours

Scroll right to see more
 ConditionsComfort  
Time TempWeatherWind HumidityBarometerVisibility
10:20 pm
Sat, Dec 10
30 °FClear.1 mph86%30.21 "Hg10 mi
9:50 pm30 °FClear.1 mph86%30.24 "Hg10 mi
9:20 pm30 °FClear.1 mph86%30.24 "Hg10 mi
8:50 pm30 °FClear.3 mph80%30.24 "Hg10 mi
8:20 pm32 °FClear.2 mph80%30.24 "Hg10 mi
7:50 pm32 °FClear.5 mph80%30.27 "Hg10 mi
7:20 pm34 °FClear.6 mph81%30.27 "Hg10 mi
6:50 pm34 °FClear.6 mph81%30.27 "Hg10 mi
6:20 pm30 °FClear.5 mph86%30.27 "Hg10 mi
5:50 pm36 °FClear.2 mph75%30.27 "Hg10 mi
5:20 pm37 °FClear.2 mph75%30.27 "Hg10 mi
4:50 pm39 °FClear.No wind65%30.27 "Hg10 mi
4:20 pm45 °FSunny.1 mph66%30.27 "Hg10 mi
3:50 pm48 °FSunny.1 mph62%30.27 "Hg10 mi
3:20 pm50 °FSunny.1 mph58%30.27 "Hg10 mi
2:50 pm50 °FSunny.1 mph54%30.27 "Hg10 mi
2:20 pm50 °FSunny.1 mph54%30.27 "Hg10 mi
1:50 pm46 °FSunny.2 mph62%30.30 "Hg10 mi
1:20 pm46 °FSunny.1 mph57%30.30 "Hg10 mi
12:50 pm45 °FSunny.2 mph66%30.30 "Hg10 mi
12:20 pm43 °FSunny.2 mph71%30.33 "Hg10 mi
11:50 am41 °FSunny.2 mph70%30.33 "Hg10 mi
11:20 am39 °FSunny.3 mph75%30.33 "Hg10 mi
10:50 am37 °FSunny.2 mph81%30.33 "Hg10 mi
10:20 am36 °FSunny.2 mph87%30.33 "Hg10 mi
9:50 am34 °FSunny.3 mph87%30.33 "Hg10 mi
9:20 am32 °FSunny.2 mph93%30.33 "Hg10 mi
8:50 am30 °FSunny.2 mph93%30.33 "Hg10 mi
8:20 am28 °FSunny.1 mph93%30.33 "Hg10 mi
7:50 am30 °FClear.2 mph100%30.33 "Hg10 mi
7:20 am30 °FClear.2 mph93%30.33 "Hg10 mi
6:50 am30 °FClear.1 mph93%30.33 "Hg10 mi
6:20 am30 °FClear.2 mph93%30.33 "Hg10 mi
5:50 am30 °FClear.1 mph93%30.30 "Hg10 mi
5:20 am30 °FClear.1 mph100%30.33 "Hg10 mi
4:50 am30 °FClear.1 mph100%30.33 "Hg10 mi
4:20 am32 °FClear.1 mph93%30.33 "Hg10 mi
3:50 am32 °FClear.1 mph100%30.36 "Hg10 mi
3:20 am32 °FClear.1 mph93%30.36 "Hg10 mi
2:50 am32 °FClear.1 mph93%30.36 "Hg10 mi
2:20 am32 °FClear.1 mph93%30.36 "Hg10 mi
1:50 am34 °FClear.1 mph87%30.36 "Hg10 mi
1:20 am34 °FClear.1 mph87%30.39 "Hg10 mi
12:50 am36 °FClear.2 mph87%30.39 "Hg10 mi
12:20 am36 °FClear.2 mph87%30.39 "Hg10 mi
11:50 pm
Fri, Dec 9
36 °FClear.1 mph87%30.39 "Hg10 mi
11:20 pm36 °FClear.1 mph87%30.39 "Hg10 mi
Weather by CustomWeather, © 2016

See weather overviewHow to use our weather pages